Flag for U.S.A. Weather past 2 weeks in Waterbury, Connecticut, U.S.A.

Now
46 °F

Partly cloudy.


Feels Like: 46 °F
Forecast: 31 / 51 °F
Wind: No wind

Location: Oxford

Current Time: Dec 27, 2014 at 6:04:56 PM

Latest Report: Dec 27, 2014 at 4:50 PM


Visibility: 10 mi

Pressure: 30.15 "Hg

Humidity: 57%

Dew point: 32 °F

Location of WaterburyLocation

Historic Weather in Waterbury — Graph

°F

Waterbury temperature yesterday

Maximum temperature yesterday: 46 °F (at 1:55 PM)
Minimum temperature yesterday: 30 °F (at 4:55 AM)
Average temperature yesterday: 38 °F

Past Weeks' High & Low Weather Summary

 TemperatureHumidityPressure
High57 °F (Dec 24, 9:15 PM)100% (Dec 25, 10:50 AM)30.34 "Hg (Dec 25, 10:50 AM)
Low25 °F (Dec 20, 5:15 AM)44% (Dec 19, 4:52 PM)29.49 "Hg (Dec 25, 4:15 AM)
Average37 °F70%30.02 "Hg
* Reported Dec 12 4:52 PM — Dec 27 4:50 PM, Waterbury, Weather by CustomWeather, © 2014

Note: Actual official high and low records may vary slightly from our data, if they occured in-between our weather recording intervals... More about our weather records

Advertising

Waterbury weather history for previous 24 hours

 ConditionsComfort  
Time TempWeatherWind HumidityBarometerVisibility
4:50 PM
Dec 27
46 °FPartly cloudy.No wind57%30.15 "Hg10 mi
3:45 PM52 °FSunny.5 mph50%30.15 "Hg10 mi
2:48 PM52 °FSunny.5 mph50%30.15 "Hg10 mi
1:55 PM50 °FSunny.5 mph54%30.15 "Hg10 mi
12:48 PM48 °FPassing clouds.7 mphN/AN/A10 mi
11:52 AM46 °FSunny.No wind53%30.21 "Hg10 mi
10:52 AM45 °FScattered clouds.5 mph57%30.23 "Hg10 mi
9:52 AM43 °FScattered clouds.No wind57%30.24 "Hg10 mi
8:52 AM39 °FSunny.No wind61%30.25 "Hg10 mi
7:52 AM34 °FSunny.No wind65%30.22 "Hg10 mi
6:52 AM34 °FClear.5 mph60%30.21 "Hg10 mi
5:52 AM34 °FClear.5 mph60%30.19 "Hg10 mi
5:35 AM34 °FClear.3 mph65%30.18 "Hg10 mi
5:15 AM36 °FClear.5 mph65%30.17 "Hg10 mi
4:55 AM37 °FClear.5 mph60%30.17 "Hg10 mi
4:35 AM37 °FClear.3 mph60%30.17 "Hg10 mi
3:55 AM37 °FClear.3 mph60%30.18 "Hg10 mi
3:35 AM37 °FClear.3 mph60%30.19 "Hg10 mi
3:15 AM36 °FClear.5 mph65%30.19 "Hg10 mi
2:55 AM36 °FClear.5 mph65%30.17 "Hg10 mi
2:35 AM36 °FClear.3 mph65%30.17 "Hg10 mi
2:15 AM36 °FClear.3 mph65%30.19 "Hg10 mi
1:55 AM36 °FClear.5 mph65%30.19 "Hg10 mi
1:35 AM36 °FClear.3 mph65%30.18 "Hg10 mi
1:15 AM37 °FClear.3 mph60%30.17 "Hg10 mi
12:55 AM37 °FClear.5 mph60%30.17 "Hg10 mi
12:35 AM36 °FClear.5 mph65%30.17 "Hg10 mi
12:15 AM36 °FClear.3 mph65%30.17 "Hg10 mi
11:55 PM
Dec 26
36 °FClear.3 mph65%30.17 "Hg10 mi
11:35 PM37 °FClear.No wind60%30.18 "Hg10 mi
10:35 PM36 °FClear.No wind65%30.19 "Hg10 mi
10:15 PM37 °FClear.No wind60%30.19 "Hg10 mi
9:55 PM37 °FClear.3 mph60%30.20 "Hg10 mi
9:35 PM37 °FClear.No wind60%30.19 "Hg10 mi
9:15 PM37 °FClear.3 mph60%30.19 "Hg10 mi
8:58 PM36 °FClear.No wind65%30.19 "Hg10 mi
7:52 PM36 °FClear.6 mph65%30.19 "Hg10 mi
6:52 PM34 °FClear.6 mph75%30.18 "Hg10 mi
Weather by CustomWeather, © 2014

See weather overviewHow to use our weather pages